Jackson Hawkins Field, MS

8:40 AM CDT on September 22, 2017 (GMT -0500)
Hawkins

Weather History for KHKS - January, 2013

Change the Weather History Date:

Friday, January 18, 2013

  Actual Average (KJAN) Record (KJAN)
Temperature  
Mean Temperature 44 °F -  
Max Temperature 57 °F 56 °F 78 °F (1974)
Min Temperature 30 °F 38 °F 10 °F (1948)
Degree Days  
Heating Degree Days 22    
Moisture  
Dew Point 32 °F    
Average Humidity 67    
Maximum Humidity 89    
Minimum Humidity 34    
Precipitation  
Precipitation 0.00 in - - ()
Sea Level Pressure  
Sea Level Pressure 30.47 in    
Wind  
Wind Speed 3 mph (NE)    
Max Wind Speed 9 mph    
Max Gust Speed -    
Visibility 9 miles    
Events      
Averages and records for this station are not official NWS values.
T = Trace of Precipitation, MM = Missing Value Source: NWS Daily Summary

Daily Weather History Graph

Daily Weather History Graph

Search for Another Location

Airport or City:

Trip Planner

Search our weather history database for the weather conditions in past years. The results will help you decide how hot, cold, wet, or windy it might be!

Date:

Astronomy

Jan. 18, 2013 Rise Set
Actual Time 7:01 AM CST 5:21 PM CST
Civil Twilight 6:35 AM CST 5:47 PM CST
Nautical Twilight 6:05 AM CST 6:17 PM CST
Astronomical Twilight 5:35 AM CST 6:47 PM CST
Moon 11:08 AM CST (1/18) No Moon Set
Length of Visible Light 11h 12m
Length of Day
10h 19m
Waxing Crescent, 47% of the Moon is Illuminated
Jan 18
Waxing Crescent
Jan 18
First Quarter
Jan 26
Full
Feb 3
Last Quarter
Feb 10
New

Hourly Weather History & Observations

Time (CST) Temp. Windchill Dew Point Humidity Pressure Visibility Wind Dir Wind Speed Gust Speed Precip Events Conditions
12:53 AM 39.0 °F 34.0 °F 34.0 °F 82% 30.46 in 10.0 mi North 6.9 mph - N/A   Clear
1:53 AM 37.9 °F 34.4 °F 33.1 °F 83% 30.48 in 10.0 mi North 4.6 mph - N/A   Clear
2:53 AM 37.0 °F 34.5 °F 32.0 °F 82% 30.49 in 10.0 mi North 3.5 mph - N/A   Clear
3:53 AM 35.1 °F 32.2 °F 30.9 °F 85% 30.50 in 10.0 mi North 3.5 mph - N/A   Clear
4:53 AM 33.1 °F - 28.9 °F 85% 30.50 in 10.0 mi Calm Calm - N/A   Clear
5:53 AM 33.1 °F - 30.0 °F 89% 30.51 in 9.0 mi Calm Calm - N/A   Clear
6:53 AM 30.9 °F - 28.0 °F 89% 30.53 in 8.0 mi Calm Calm - N/A   Clear
7:53 AM 35.1 °F - 30.0 °F 82% 30.54 in 7.0 mi Calm Calm - N/A   Clear
8:53 AM 37.9 °F 34.4 °F 32.0 °F 79% 30.56 in 8.0 mi ENE 4.6 mph - N/A   Clear
9:53 AM 44.1 °F 39.0 °F 34.0 °F 68% 30.56 in 10.0 mi ENE 9.2 mph - N/A   Clear
10:53 AM 48.0 °F - 34.0 °F 58% 30.55 in 10.0 mi ENE 5.8 mph - N/A   Clear
11:53 AM 51.1 °F - 32.0 °F 48% 30.51 in 10.0 mi Calm Calm - N/A   Clear
12:53 PM 54.0 °F - 30.0 °F 40% 30.46 in 10.0 mi Variable 4.6 mph - N/A   Clear
1:53 PM 55.9 °F - 30.0 °F 37% 30.43 in 10.0 mi Calm Calm - N/A   Clear
2:53 PM 57.0 °F - 28.9 °F 34% 30.43 in 10.0 mi ENE 4.6 mph - N/A   Clear
3:53 PM 57.0 °F - 30.0 °F 36% 30.40 in 10.0 mi ENE 4.6 mph - N/A   Clear
4:53 PM 55.0 °F - 28.9 °F 37% 30.40 in 10.0 mi ENE 4.6 mph - N/A   Clear
5:53 PM 50.0 °F - 30.9 °F 48% 30.40 in 10.0 mi Calm Calm - N/A   Clear
6:53 PM 44.1 °F - 34.0 °F 68% 30.42 in 9.0 mi Calm Calm - N/A   Clear
7:53 PM 41.0 °F - 34.0 °F 76% 30.41 in 6.0 mi Calm Calm - N/A   Haze
8:53 PM 41.0 °F - 33.1 °F 73% 30.41 in 10.0 mi Calm Calm - N/A   Clear
9:53 PM 37.9 °F - 33.1 °F 83% 30.40 in 10.0 mi Calm Calm - N/A   Clear
10:53 PM 37.0 °F - 33.1 °F 86% 30.39 in 10.0 mi Calm Calm - N/A   Clear